Home > Weather > Lisbon > Past weeks

Flag for Portugal Weather for the Past 2 Weeks in Lisbon, Portugal

Now
57 °F

Scattered showers. Scattered clouds.


Feels Like: 54 °F
Forecast: 57 / 61 °F
Wind: 13 mph from West

Location: Lisbon Portela Airport

Current Time: Feb 9, 2016 at 9:03:41 AM

Latest Report: Feb 9, 2016 at 8:00 AM


Visibility: N/A

Pressure: 30.30 "Hg

Humidity: 88%

Dew point: 54 °F

Location of LisbonLocation

Historic Weather in Lisbon — Graph

°F

Lisbon Temperature Yesterday

Maximum temperature yesterday: 61 °F (at 1:30 PM)
Minimum temperature yesterday: 54 °F (at 12:00 AM)
Average temperature yesterday: 57 °F

High & Low Weather Summary for the Past Weeks

 TemperatureHumidityPressure
High63 °F (Feb 1, 1:30 PM)100% (Jan 26, 3:00 AM)30.66 "Hg (Jan 26, 3:00 AM)
Low45 °F (Feb 5, 6:30 AM)45% (Feb 4, 2:00 PM)30.04 "Hg (Feb 6, 4:00 PM)
Average55 °F79%30.40 "Hg
* Reported Jan 25 7:00 AM — Feb 9 7:30 AM, Lisbon, Weather by CustomWeather, © 2016

Note: Actual official high and low records may vary slightly from our data, if they occured in-between our weather recording intervals... More about our weather records

Advertising

Lisbon Weather History for the Previous 24 Hours

 ConditionsComfort  
Time TempWeatherWind HumidityBarometerVisibility
7:30 AM
Tue, Feb 9
57 °FPassing clouds.14 mph88%30.27 "HgN/A
7:00 AM57 °FPassing clouds.12 mph94%30.27 "Hg4 mi
6:30 AM57 °FPartly cloudy.12 mph94%30.27 "Hg5 mi
6:00 AM57 °FPassing clouds.13 mph94%30.27 "HgN/A
5:30 AM57 °FPassing clouds.10 mph94%30.27 "HgN/A
5:00 AM57 °FPassing clouds.8 mph88%30.27 "HgN/A
4:30 AM57 °FPassing clouds.10 mph88%30.27 "HgN/A
3:30 AM57 °FPartly cloudy.12 mph88%30.30 "HgN/A
3:00 AM57 °FPartly cloudy.9 mph88%30.30 "HgN/A
2:30 AM57 °FPartly cloudy.8 mph88%30.33 "HgN/A
2:00 AM57 °FPartly cloudy.10 mph88%30.33 "HgN/A
1:30 AM57 °FPartly cloudy.9 mph88%30.33 "HgN/A
1:00 AM57 °FPartly cloudy.10 mph88%30.33 "HgN/A
12:30 AM57 °FPartly cloudy.7 mph82%30.33 "HgN/A
12:00 AM57 °FPartly cloudy.9 mph82%30.36 "HgN/A
11:30 PM
Mon, Feb 8
57 °FPassing clouds.6 mph82%30.36 "HgN/A
11:00 PM57 °FPassing clouds.7 mph88%30.36 "HgN/A
10:30 PM57 °FPartly cloudy.9 mph94%30.36 "HgN/A
10:00 PM59 °FLight rain. Passing clouds.10 mph88%30.36 "HgN/A
9:30 PM59 °FPassing clouds.14 mph82%30.36 "HgN/A
9:00 PM57 °FPassing clouds.12 mph88%30.36 "HgN/A
8:30 PM57 °FPassing clouds.12 mph88%30.36 "HgN/A
8:00 PM57 °FPassing clouds.9 mph88%30.36 "HgN/A
7:30 PM57 °FPartly cloudy.9 mph88%30.36 "HgN/A
7:00 PM57 °FPassing clouds.10 mph88%30.36 "HgN/A
6:30 PM57 °FPartly cloudy.7 mph88%30.36 "HgN/A
6:00 PM57 °FPartly sunny.9 mph88%30.36 "HgN/A
5:30 PM59 °FPartly sunny.12 mph77%30.36 "HgN/A
5:00 PM59 °FPartly sunny.12 mph77%30.36 "HgN/A
4:30 PM59 °FScattered clouds.12 mph77%30.36 "HgN/A
4:00 PM59 °FScattered clouds.13 mph77%30.36 "HgN/A
3:30 PM61 °FScattered clouds.13 mph72%30.36 "HgN/A
3:00 PM61 °FPassing clouds.12 mph72%30.36 "HgN/A
2:30 PM61 °FScattered clouds.13 mph68%30.36 "HgN/A
2:00 PM61 °FScattered clouds.14 mph72%30.39 "HgN/A
1:30 PM61 °FPassing clouds.9 mph68%30.39 "HgN/A
1:00 PM59 °FScattered clouds.13 mph77%30.42 "HgN/A
12:30 PM59 °FPartly sunny.12 mph72%30.42 "HgN/A
12:00 PM59 °FPartly sunny.9 mph77%30.42 "HgN/A
11:30 AM57 °FScattered showers. Partly sunny.8 mph82%30.45 "HgN/A
11:00 AM57 °FSprinkles. Broken clouds.7 mph82%30.42 "HgN/A
10:30 AM57 °FScattered showers. Broken clouds.9 mph77%30.42 "HgN/A
10:00 AM57 °FPartly sunny.6 mph77%30.42 "HgN/A
9:30 AM57 °FPartly sunny.5 mph77%30.39 "HgN/A
9:00 AM55 °FPartly sunny.5 mph82%30.39 "HgN/A
Weather by CustomWeather, © 2016

See weather overviewHow to use our weather pages